Location: Most
(50.5133°N, 13.6207°E)
Time: 10:54:42
(UTC+01:00)

Oscar 11 - Pass Details

Date: 05 December 2022
Orbit: 611 x 621 km, 97.6° (Epoch: 28 January)

Event Time Altitude Azimuth Distance (km) Brightness Sun altitude
Rises 04:36:33 0° 16° (NNE) 2,890 10.7 -29.6°
Reaches altitude 10° 04:38:47 10° 21° (NNE) 1,980 9.8 -29.2°
Enters shadow 04:40:35 24° 29° (NNE) 1,288 8.9 -28.9°
